Weather History for Ely, NV

Change the Weather History Date:

Tuesday, January 22, 2013

  Actual Average Record
Temperature  
Mean Temperature 29 °F 26 °F  
Max Temperature 51 °F 40 °F 62 °F (1912)
Min Temperature 7 °F 11 °F -20 °F (1962)
Degree Days  
Heating Degree Days 36 39  
Month to date heating degree days 1152 879  
Since 1 July heating degree days 3790 3979  
Cooling Degree Days 0 0  
Month to date cooling degree days 0 0  
Year to date cooling degree days 0 0  
Moisture  
Dew Point 10 °F    
Average Humidity 51    
Maximum Humidity 80    
Minimum Humidity 21    
Precipitation  
Precipitation 0.00 in 0.02 in 0.45 in (1967)
Month to date precipitation 0.25 0.50  
Year to date precipitation 0.25 0.50  
Snow  
Snow 0.00 in 0.20 in 7.00 in (1967)
Month to date snowfall 4.9 6.6  
Since 1 July snowfall 38.7 24.5  
Snow Depth 9.00 in    
Sea Level Pressure  
Sea Level Pressure 30.39 in    
Wind  
Wind Speed 10 mph (South)    
Max Wind Speed 20 mph    
Max Gust Speed 30 mph    
Visibility 10 miles    
Events      
T = Trace of Precipitation, MM = Missing Value Source: NWS Daily Summary

Daily Weather History Graph

Daily Weather History Graph

Search for Another Location

Airport:

Trip Planner

Search our weather history database for the weather conditions in past years. The results will help you decide how hot, cold, wet, or windy it might be!

Date:

Astronomy

Jan. 22, 2013 Rise Set
Actual Time 6:53 AM PST 4:48 PM PST
Civil Twilight 6:24 AM PST 5:17 PM PST
Nautical Twilight 5:52 AM PST 5:50 PM PST
Astronomical Twilight 5:20 AM PST 6:22 PM PST
Moon 1:15 PM PST 3:18 AM PST
Length of Visible Light 10h 52m
Length of Day
9h 54m
Waxing Gibbous, 83% of the Moon is Illuminated
Jan 22
Waxing Gibbous
Jan 26
Full
Feb 3
Last Quarter
Feb 9
New
Feb 17
First Quarter

Hourly Weather History & Observations

Time (PST) Temp. Windchill Dew Point Humidity Pressure Visibility Wind Dir Wind Speed Gust Speed Precip Events Conditions
12:53 AM 10.9 °F -5.9 °F 3.9 °F 73% 30.44 in 10.0 mi South 16.1 mph - N/A   Clear
1:53 AM 10.9 °F -4.7 °F 3.0 °F 70% 30.43 in 10.0 mi South 13.8 mph - N/A   Clear
2:53 AM 10.0 °F -5.9 °F 3.0 °F 73% 30.42 in 10.0 mi South 13.8 mph - N/A   Clear
3:53 AM 9.0 °F -7.3 °F 1.9 °F 73% 30.42 in 10.0 mi South 13.8 mph - N/A   Clear
4:53 AM 9.0 °F -7.3 °F 1.9 °F 73% 30.51 in 10.0 mi South 13.8 mph - N/A   Clear
5:53 AM 9.0 °F -7.3 °F 1.9 °F 73% 30.52 in 10.0 mi South 13.8 mph - N/A   Clear
6:53 AM 7.0 °F -10.4 °F -0.0 °F 73% 30.51 in 10.0 mi South 15.0 mph - N/A   Clear
7:53 AM 10.0 °F -5.2 °F 1.9 °F 70% 30.52 in 10.0 mi South 12.7 mph - N/A   Clear
8:53 AM 19.9 °F 7.9 °F 7.0 °F 57% 30.47 in 10.0 mi South 11.5 mph - N/A   Clear
9:53 AM 30.0 °F 21.7 °F 12.9 °F 49% 30.44 in 10.0 mi SSE 9.2 mph - N/A   Clear
10:53 AM 36.0 °F 30.3 °F 16.0 °F 44% 30.42 in 10.0 mi South 6.9 mph - N/A   Clear
11:53 AM 44.1 °F 41.5 °F 14.0 °F 30% 30.35 in 10.0 mi SSE 4.6 mph - N/A   Clear
12:53 PM 46.9 °F - 14.0 °F 27% 30.29 in 10.0 mi Calm Calm - N/A   Clear
1:53 PM 51.1 °F - 12.9 °F 22% 30.26 in 10.0 mi Calm Calm - N/A   Clear
2:53 PM 48.9 °F - 18.0 °F 29% 30.27 in 10.0 mi East 3.5 mph - N/A   Clear
3:53 PM 46.9 °F - 16.0 °F 29% 30.28 in 10.0 mi SSW 6.9 mph - N/A   Clear
4:53 PM 34.0 °F 29.8 °F 19.9 °F 56% 30.35 in 10.0 mi SSE 4.6 mph - N/A   Clear
5:53 PM 32.0 °F 23.6 °F 16.0 °F 52% 30.38 in 10.0 mi SW 10.4 mph - N/A   Clear
6:53 PM 30.0 °F 23.2 °F 15.1 °F 54% 30.41 in 10.0 mi SSW 6.9 mph - N/A   Clear
7:53 PM 26.1 °F 15.6 °F 14.0 °F 60% 30.41 in 10.0 mi South 11.5 mph - N/A   Clear
8:53 PM 24.1 °F 13.1 °F 12.9 °F 62% 30.37 in 10.0 mi South 11.5 mph - N/A   Clear
9:53 PM 23.0 °F 13.1 °F 12.9 °F 65% 30.34 in 10.0 mi SSE 9.2 mph - N/A   Clear
10:53 PM 21.0 °F 7.1 °F 10.9 °F 65% 30.30 in 10.0 mi South 16.1 mph - N/A   Clear
11:53 PM 21.0 °F 9.3 °F 10.9 °F 65% 30.28 in 10.0 mi South 11.5 mph - N/A   Clear